Time,TemperatureF,DewpointF,PressureIn,WindDirection,WindDirectionDegrees,WindSpeedMPH,WindSpeedGustMPH,Humidity,HourlyPrecipIn,Conditions,Clouds,dailyrainin,SoftwareType,DateUTC
2013-07-07 00:01:00,-999.0,-99.9,-100.00,SW,230,12.0,14.0,-999,-99.99,,,-99.99,,2013-07-07 05:01:00,
2013-07-07 00:11:00,-999.0,-99.9,-100.00,SW,230,10.0,13.0,-999,-99.99,,,-99.99,,2013-07-07 05:11:00,
2013-07-07 00:21:00,-999.0,-99.9,-100.00,SW,230,10.0,13.0,-999,-99.99,,,-99.99,,2013-07-07 05:21:00,
2013-07-07 02:11:00,-999.0,-99.9,-100.00,North,0,0.0,0.0,-999,-99.99,,,-99.99,,2013-07-07 07:11:00,
2013-07-07 02:23:00,-999.0,-99.9,-100.00,North,0,0.0,0.0,-999,-99.99,,,-99.99,,2013-07-07 07:23:00,
2013-07-07 02:34:00,-999.0,-99.9,-100.00,North,0,0.0,0.0,-999,-99.99,,,-99.99,,2013-07-07 07:34:00,
2013-07-07 02:44:00,-999.0,-99.9,-100.00,North,0,0.0,0.0,-999,-99.99,,,-99.99,,2013-07-07 07:44:00,
2013-07-07 02:53:00,-999.0,-99.9,-100.00,North,0,0.0,0.0,-999,-99.99,,,-99.99,,2013-07-07 07:53:00,
2013-07-07 03:03:00,-999.0,-99.9,-100.00,North,0,0.0,0.0,-999,-99.99,,,-99.99,,2013-07-07 08:03:00,
2013-07-07 03:12:00,-999.0,-99.9,-100.00,North,0,0.0,0.0,-999,-99.99,,,-99.99,,2013-07-07 08:12:00,
2013-07-07 03:22:00,-999.0,-99.9,-100.00,North,0,0.0,0.0,-999,-99.99,,,-99.99,,2013-07-07 08:22:00,
2013-07-07 03:34:00,-999.0,-99.9,-100.00,North,0,0.0,0.0,-999,-99.99,,,-99.99,,2013-07-07 08:34:00,
2013-07-07 03:53:00,-999.0,-99.9,-100.00,North,0,0.0,0.0,-999,-99.99,,,-99.99,,2013-07-07 08:53:00,
2013-07-07 04:02:00,-999.0,-99.9,-100.00,North,0,0.0,0.0,-999,-99.99,,,-99.99,,2013-07-07 09:02:00,
2013-07-07 05:23:00,-999.0,-99.9,-100.00,North,0,0.0,0.0,-999,-99.99,,,-99.99,,2013-07-07 10:23:00,
2013-07-07 06:12:00,-999.0,-99.9,-100.00,North,0,0.0,0.0,-999,-99.99,,,-99.99,,2013-07-07 11:12:00,
2013-07-07 06:53:00,-999.0,-99.9,-100.00,North,0,0.0,0.0,-999,-99.99,,,-99.99,,2013-07-07 11:53:00,
2013-07-07 07:02:00,-999.0,-99.9,-100.00,North,0,0.0,0.0,-999,-99.99,,,-99.99,,2013-07-07 12:02:00,
2013-07-07 07:43:00,-999.0,-99.9,-100.00,North,0,0.0,0.0,-999,-99.99,,,-99.99,,2013-07-07 12:43:00,
2013-07-07 07:52:00,-999.0,-99.9,-100.00,North,0,0.0,0.0,-999,-99.99,,,-99.99,,2013-07-07 12:52:00,
2013-07-07 08:03:00,-999.0,-99.9,-100.00,North,0,0.0,0.0,-999,-99.99,,,-99.99,,2013-07-07 13:03:00,
2013-07-07 08:12:00,-999.0,-99.9,-100.00,North,0,0.0,0.0,-999,-99.99,,,-99.99,,2013-07-07 13:12:00,
2013-07-07 08:22:00,-999.0,-99.9,-100.00,North,0,0.0,0.0,-999,-99.99,,,-99.99,,2013-07-07 13:22:00,
2013-07-07 08:34:00,-999.0,-99.9,-100.00,North,0,0.0,0.0,-999,-99.99,,,-99.99,,2013-07-07 13:34:00,
2013-07-07 09:12:00,-999.0,-99.9,-100.00,North,0,0.0,0.0,-999,-99.99,,,-99.99,,2013-07-07 14:12:00,
2013-07-07 09:22:00,-999.0,-99.9,-100.00,North,0,0.0,0.0,-999,-99.99,,,-99.99,,2013-07-07 14:22:00,
2013-07-07 09:34:00,-999.0,-99.9,-100.00,North,0,0.0,0.0,-999,-99.99,,,-99.99,,2013-07-07 14:34:00,
2013-07-07 11:11:00,-999.0,-99.9,-100.00,SW,230,7.0,8.0,-999,-99.99,,,-99.99,,2013-07-07 16:11:00,
2013-07-07 11:23:00,-999.0,-99.9,-100.00,SW,230,7.0,8.0,-999,-99.99,,,-99.99,,2013-07-07 16:23:00,
2013-07-07 11:34:00,-999.0,-99.9,-100.00,SW,230,7.0,8.0,-999,-99.99,,,-99.99,,2013-07-07 16:34:00,
2013-07-07 11:53:00,-999.0,-99.9,-100.00,WSW,240,12.0,14.0,-999,-99.99,,,-99.99,,2013-07-07 16:53:00,
2013-07-07 12:02:00,-999.0,-99.9,-100.00,WSW,240,12.0,14.0,-999,-99.99,,,-99.99,,2013-07-07 17:02:00,
2013-07-07 12:12:00,-999.0,-99.9,-100.00,SW,230,7.0,9.0,-999,-99.99,,,-99.99,,2013-07-07 17:12:00,
2013-07-07 12:22:00,-999.0,-99.9,-100.00,SW,230,7.0,9.0,-999,-99.99,,,-99.99,,2013-07-07 17:22:00,
2013-07-07 12:34:00,-999.0,-99.9,-100.00,SW,230,7.0,9.0,-999,-99.99,,,-99.99,,2013-07-07 17:34:00,
2013-07-07 15:11:00,-999.0,-99.9,-100.00,SW,230,13.0,15.0,-999,-99.99,,,-99.99,,2013-07-07 20:11:00,
2013-07-07 15:22:00,-999.0,-99.9,-100.00,SW,230,13.0,15.0,-999,-99.99,,,-99.99,,2013-07-07 20:22:00,
2013-07-07 15:34:00,-999.0,-99.9,-100.00,SW,230,13.0,15.0,-999,-99.99,,,-99.99,,2013-07-07 20:34:00,
2013-07-07 15:53:00,-999.0,-99.9,-100.00,SW,220,18.0,22.0,-999,-99.99,,,-99.99,,2013-07-07 20:53:00,
2013-07-07 16:02:00,-999.0,-99.9,-100.00,SW,220,18.0,22.0,-999,-99.99,,,-99.99,,2013-07-07 21:02:00,
2013-07-07 16:12:00,-999.0,-99.9,-100.00,WSW,240,21.0,23.0,-999,-99.99,,,-99.99,,2013-07-07 21:12:00,
2013-07-07 16:22:00,-999.0,-99.9,-100.00,WSW,240,21.0,23.0,-999,-99.99,,,-99.99,,2013-07-07 21:22:00,
2013-07-07 16:34:00,-999.0,-99.9,-100.00,WSW,240,21.0,23.0,-999,-99.99,,,-99.99,,2013-07-07 21:34:00,
2013-07-07 16:53:00,-999.0,-99.9,-100.00,SW,220,16.0,18.0,-999,-99.99,,,-99.99,,2013-07-07 21:53:00,
2013-07-07 17:02:00,-999.0,-99.9,-100.00,SW,220,16.0,18.0,-999,-99.99,,,-99.99,,2013-07-07 22:02:00,
2013-07-07 17:34:00,-999.0,-99.9,-100.00,SSW,210,10.0,14.0,-999,-99.99,,,-99.99,,2013-07-07 22:34:00,
2013-07-07 17:54:00,-999.0,-99.9,-100.00,WSW,240,10.0,13.0,-999,-99.99,,,-99.99,,2013-07-07 22:54:00,
2013-07-07 18:02:00,-999.0,-99.9,-100.00,WSW,240,10.0,13.0,-999,-99.99,,,-99.99,,2013-07-07 23:02:00,
2013-07-07 18:12:00,-999.0,-99.9,-100.00,WSW,240,9.0,13.0,-999,-99.99,,,-99.99,,2013-07-07 23:12:00,
2013-07-07 18:22:00,-999.0,-99.9,-100.00,WSW,240,9.0,13.0,-999,-99.99,,,-99.99,,2013-07-07 23:22:00,
2013-07-07 18:33:00,-999.0,-99.9,-100.00,WSW,240,9.0,13.0,-999,-99.99,,,-99.99,,2013-07-07 23:33:00,
2013-07-07 18:43:00,-999.0,-99.9,-100.00,SW,220,16.0,17.0,-999,-99.99,,,-99.99,,2013-07-07 23:43:00,
2013-07-07 18:53:00,-999.0,-99.9,-100.00,SW,220,16.0,17.0,-999,-99.99,,,-99.99,,2013-07-07 23:53:00,
2013-07-07 19:02:00,-999.0,-99.9,-100.00,SW,220,16.0,17.0,-999,-99.99,,,-99.99,,2013-07-08 00:02:00,
2013-07-07 20:01:00,-999.0,-99.9,-100.00,SSW,210,6.0,8.0,-999,-99.99,,,-99.99,,2013-07-08 01:01:00,
2013-07-07 20:32:00,-999.0,-99.9,-100.00,East,80,8.0,12.0,-999,-99.99,,,-99.99,,2013-07-08 01:32:00,
2013-07-07 21:03:00,-999.0,-99.9,-100.00,SW,230,10.0,15.0,-999,-99.99,,,-99.99,,2013-07-08 02:03:00,
2013-07-07 21:34:00,-999.0,-99.9,-100.00,WSW,250,10.0,15.0,-999,-99.99,,,-99.99,,2013-07-08 02:34:00,
2013-07-07 21:52:00,-999.0,-99.9,-100.00,North,0,0.0,0.0,-999,-99.99,,,-99.99,,2013-07-08 02:52:00,
2013-07-07 22:02:00,-999.0,-99.9,-100.00,North,0,0.0,0.0,-999,-99.99,,,-99.99,,2013-07-08 03:02:00,
2013-07-07 22:12:00,-999.0,-99.9,-100.00,North,0,0.0,0.0,-999,-99.99,,,-99.99,,2013-07-08 03:12:00,
2013-07-07 22:23:00,-999.0,-99.9,-100.00,North,0,0.0,0.0,-999,-99.99,,,-99.99,,2013-07-08 03:23:00,
2013-07-07 22:34:00,-999.0,-99.9,-100.00,North,0,0.0,0.0,-999,-99.99,,,-99.99,,2013-07-08 03:34:00,
2013-07-07 22:52:00,-999.0,-99.9,-100.00,North,0,0.0,0.0,-999,-99.99,,,-99.99,,2013-07-08 03:52:00,
2013-07-07 23:02:00,-999.0,-99.9,-100.00,North,0,0.0,0.0,-999,-99.99,,,-99.99,,2013-07-08 04:02:00,
2013-07-07 23:53:00,-999.0,-99.9,-100.00,North,0,0.0,0.0,-999,-99.99,,,-99.99,,2013-07-08 04:53:00,